Time,TemperatureF,DewpointF,PressureIn,WindDirection,WindDirectionDegrees,WindSpeedMPH,WindSpeedGustMPH,Humidity,HourlyPrecipIn,Conditions,Clouds,dailyrainin,SoftwareType,DateUTC
2013-09-05 00:01:00,63.8,56.8,29.85,SW,234,0.0,0.0,78,0.00,,,0.00,WeatherCatV1.10B1784,2013-09-05 04:01:00,
2013-09-05 00:02:00,63.7,56.7,29.85,SW,234,0.0,1.0,78,0.00,,,0.00,WeatherCatV1.10B1784,2013-09-05 04:02:00,
2013-09-05 00:07:00,63.6,57.0,29.85,SW,234,0.0,0.0,79,0.00,,,0.00,WeatherCatV1.10B1784,2013-09-05 04:07:00,
2013-09-05 00:12:00,63.2,56.2,29.85,SW,234,0.0,0.0,78,0.00,,,0.00,WeatherCatV1.10B1784,2013-09-05 04:12:00,
2013-09-05 00:17:00,63.0,56.7,29.85,SW,234,0.0,0.0,80,0.00,,,0.00,WeatherCatV1.10B1784,2013-09-05 04:17:00,
2013-09-05 00:22:00,62.7,56.4,29.85,SW,234,0.0,0.0,80,0.00,,,0.00,WeatherCatV1.10B1784,2013-09-05 04:22:00,
2013-09-05 00:27:00,62.5,56.2,29.85,SW,234,0.0,0.0,80,0.00,,,0.00,WeatherCatV1.10B1784,2013-09-05 04:27:00,
2013-09-05 00:32:00,62.4,55.8,29.85,SW,234,0.0,0.0,79,0.00,,,0.00,WeatherCatV1.10B1784,2013-09-05 04:32:00,
2013-09-05 00:37:00,62.2,56.6,29.85,SW,234,0.0,0.0,82,0.00,,,0.00,WeatherCatV1.10B1784,2013-09-05 04:37:00,
2013-09-05 00:42:00,61.8,56.2,29.85,SW,234,0.0,0.0,82,0.00,,,0.00,WeatherCatV1.10B1784,2013-09-05 04:42:00,
2013-09-05 00:47:00,61.4,55.9,29.85,SW,234,0.0,0.0,82,0.00,,,0.00,WeatherCatV1.10B1784,2013-09-05 04:47:00,
2013-09-05 00:52:00,61.3,56.1,29.85,SW,234,0.0,0.0,83,0.00,,,0.00,WeatherCatV1.10B1784,2013-09-05 04:52:00,
2013-09-05 00:57:00,61.1,55.9,29.85,SW,234,0.0,0.0,83,0.00,,,0.00,WeatherCatV1.10B1784,2013-09-05 04:57:00,
2013-09-05 01:02:00,61.0,56.5,29.84,SW,234,0.0,1.0,85,0.00,,,0.00,WeatherCatV1.10B1784,2013-09-05 05:02:00,
2013-09-05 01:07:00,60.9,56.0,29.84,SW,234,0.0,0.0,84,0.00,,,0.00,WeatherCatV1.10B1784,2013-09-05 05:07:00,
2013-09-05 01:12:00,61.1,55.9,29.84,SW,234,1.0,1.0,83,0.00,,,0.00,WeatherCatV1.10B1784,2013-09-05 05:12:00,
2013-09-05 01:17:00,61.6,56.0,29.84,SW,234,0.0,0.0,82,0.00,,,0.00,WeatherCatV1.10B1784,2013-09-05 05:17:00,
2013-09-05 01:22:00,61.6,56.0,29.84,SW,234,0.0,0.0,82,0.00,,,0.00,WeatherCatV1.10B1784,2013-09-05 05:22:00,
2013-09-05 01:27:00,61.7,56.1,29.84,SW,234,0.0,0.0,82,0.00,,,0.00,WeatherCatV1.10B1784,2013-09-05 05:27:00,
2013-09-05 01:32:00,61.8,55.9,29.84,SW,234,0.0,3.0,81,0.00,,,0.00,WeatherCatV1.10B1784,2013-09-05 05:32:00,
2013-09-05 01:37:00,62.5,55.9,29.84,WSW,237,0.0,5.0,79,0.00,,,0.00,WeatherCatV1.10B1784,2013-09-05 05:37:00,
2013-09-05 01:42:00,63.4,56.4,29.84,SW,230,0.0,2.0,78,0.00,,,0.00,WeatherCatV1.10B1784,2013-09-05 05:42:00,
2013-09-05 01:47:00,63.9,56.2,29.84,WSW,238,0.0,4.0,76,0.00,,,0.00,WeatherCatV1.10B1784,2013-09-05 05:47:00,
2013-09-05 01:52:00,63.9,56.2,29.84,WSW,241,0.0,4.0,76,0.00,,,0.00,WeatherCatV1.10B1784,2013-09-05 05:52:00,
2013-09-05 01:57:00,63.8,56.4,29.84,WSW,241,0.0,1.0,77,0.00,,,0.00,WeatherCatV1.10B1784,2013-09-05 05:57:00,
2013-09-05 02:02:00,63.5,56.2,29.84,WSW,240,2.0,4.0,77,0.00,,,0.00,WeatherCatV1.10B1784,2013-09-05 06:02:00,
2013-09-05 02:07:00,63.5,56.2,29.84,WSW,241,0.0,5.0,77,0.00,,,0.00,WeatherCatV1.10B1784,2013-09-05 06:07:00,
2013-09-05 02:12:00,63.6,56.3,29.83,SW,221,0.0,8.0,77,0.00,,,0.00,WeatherCatV1.10B1784,2013-09-05 06:12:00,
2013-09-05 02:17:00,63.6,56.3,29.83,WSW,248,3.0,7.0,77,0.00,,,0.00,WeatherCatV1.10B1784,2013-09-05 06:17:00,
2013-09-05 02:22:00,63.5,56.5,29.83,SW,231,0.0,1.0,78,0.00,,,0.00,WeatherCatV1.10B1784,2013-09-05 06:22:00,
2013-09-05 02:27:00,63.4,56.8,29.84,WSW,252,1.0,4.0,79,0.00,,,0.00,WeatherCatV1.10B1784,2013-09-05 06:27:00,
2013-09-05 02:32:00,63.4,56.8,29.83,WSW,257,0.0,5.0,79,0.00,,,0.00,WeatherCatV1.10B1784,2013-09-05 06:32:00,
2013-09-05 02:37:00,63.4,56.8,29.83,WSW,257,1.0,5.0,79,0.00,,,0.00,WeatherCatV1.10B1784,2013-09-05 06:37:00,
2013-09-05 02:42:00,63.4,57.1,29.83,WSW,252,2.0,4.0,80,0.00,,,0.00,WeatherCatV1.10B1784,2013-09-05 06:42:00,
2013-09-05 02:47:00,63.4,57.1,29.83,SW,232,0.0,6.0,80,0.00,,,0.00,WeatherCatV1.10B1784,2013-09-05 06:47:00,
2013-09-05 02:52:00,63.4,57.1,29.83,WSW,249,0.0,2.0,80,0.00,,,0.00,WeatherCatV1.10B1784,2013-09-05 06:52:00,
2013-09-05 02:57:00,63.3,57.4,29.83,WSW,245,2.0,3.0,81,0.00,,,0.00,WeatherCatV1.10B1784,2013-09-05 06:57:00,
2013-09-05 03:02:00,63.4,57.5,29.83,SW,235,0.0,6.0,81,0.00,,,0.00,WeatherCatV1.10B1784,2013-09-05 07:02:00,
2013-09-05 03:07:00,63.7,57.4,29.83,SW,229,4.0,5.0,80,0.00,,,0.00,WeatherCatV1.10B1784,2013-09-05 07:07:00,
2013-09-05 03:12:00,64.2,57.5,29.83,WSW,238,0.0,7.0,79,0.00,,,0.00,WeatherCatV1.10B1784,2013-09-05 07:12:00,
2013-09-05 03:17:00,64.4,57.7,29.83,WSW,257,4.0,6.0,79,0.00,,,0.00,WeatherCatV1.10B1784,2013-09-05 07:17:00,
2013-09-05 03:22:00,64.7,58.0,29.83,WSW,242,3.0,7.0,79,0.00,,,0.00,WeatherCatV1.10B1784,2013-09-05 07:22:00,
2013-09-05 03:27:00,64.7,58.0,29.83,WSW,244,0.0,7.0,79,0.00,,,0.00,WeatherCatV1.10B1784,2013-09-05 07:27:00,
2013-09-05 03:32:00,64.7,58.4,29.83,SSW,211,3.0,7.0,80,0.00,,,0.00,WeatherCatV1.10B1784,2013-09-05 07:32:00,
2013-09-05 03:37:00,64.5,58.2,29.83,SW,235,0.0,4.0,80,0.00,,,0.00,WeatherCatV1.10B1784,2013-09-05 07:37:00,
2013-09-05 03:42:00,64.3,58.0,29.82,WSW,238,5.0,5.0,80,0.00,,,0.00,WeatherCatV1.10B1784,2013-09-05 07:42:00,
2013-09-05 03:47:00,64.0,58.0,29.82,West,279,0.0,4.0,81,0.00,,,0.00,WeatherCatV1.10B1784,2013-09-05 07:47:00,
2013-09-05 03:52:00,63.8,57.9,29.82,SW,220,0.0,4.0,81,0.00,,,0.00,WeatherCatV1.10B1784,2013-09-05 07:52:00,
2013-09-05 03:57:00,63.4,57.8,29.82,SSW,205,2.0,2.0,82,0.00,,,0.00,WeatherCatV1.10B1784,2013-09-05 07:57:00,
2013-09-05 04:02:00,63.2,57.9,29.82,WSW,250,0.0,1.0,83,0.00,,,0.00,WeatherCatV1.10B1784,2013-09-05 08:02:00,
2013-09-05 04:07:00,63.0,57.8,29.82,WSW,248,0.0,0.0,83,0.00,,,0.00,WeatherCatV1.10B1784,2013-09-05 08:07:00,
2013-09-05 04:12:00,62.8,57.6,29.82,WSW,244,0.0,0.0,83,0.00,,,0.00,WeatherCatV1.10B1784,2013-09-05 08:12:00,
2013-09-05 04:17:00,62.7,57.8,29.82,WSW,242,2.0,2.0,84,0.00,,,0.00,WeatherCatV1.10B1784,2013-09-05 08:17:00,
2013-09-05 04:22:00,62.5,57.6,29.82,WSW,245,0.0,2.0,84,0.00,,,0.00,WeatherCatV1.10B1784,2013-09-05 08:22:00,
2013-09-05 04:27:00,62.5,57.6,29.82,SW,222,0.0,4.0,84,0.00,,,0.00,WeatherCatV1.10B1784,2013-09-05 08:27:00,
2013-09-05 04:32:00,62.6,57.7,29.83,WSW,257,0.0,1.0,84,0.00,,,0.00,WeatherCatV1.10B1784,2013-09-05 08:32:00,
2013-09-05 04:37:00,62.7,57.8,29.83,SW,229,0.0,3.0,84,0.00,,,0.00,WeatherCatV1.10B1784,2013-09-05 08:37:00,
2013-09-05 04:42:00,62.9,57.7,29.83,WSW,240,4.0,7.0,83,0.00,,,0.00,WeatherCatV1.10B1784,2013-09-05 08:42:00,
2013-09-05 04:47:00,63.2,57.6,29.83,WSW,245,4.0,9.0,82,0.00,,,0.00,WeatherCatV1.10B1784,2013-09-05 08:47:00,
2013-09-05 04:52:00,63.4,57.8,29.83,WSW,244,0.0,5.0,82,0.00,,,0.00,WeatherCatV1.10B1784,2013-09-05 08:52:00,
2013-09-05 04:57:00,63.5,57.9,29.84,WSW,251,3.0,7.0,82,0.00,,,0.00,WeatherCatV1.10B1784,2013-09-05 08:57:00,
2013-09-05 05:02:00,63.7,57.8,29.84,SW,233,5.0,7.0,81,0.00,,,0.00,WeatherCatV1.10B1784,2013-09-05 09:02:00,
2013-09-05 05:07:00,63.8,57.9,29.84,WSW,244,1.0,5.0,81,0.00,,,0.00,WeatherCatV1.10B1784,2013-09-05 09:07:00,
2013-09-05 05:12:00,64.0,57.7,29.83,WSW,243,0.0,4.0,80,0.00,,,0.00,WeatherCatV1.10B1784,2013-09-05 09:12:00,
2013-09-05 05:17:00,64.0,57.7,29.84,SSW,193,0.0,5.0,80,0.00,,,0.00,WeatherCatV1.10B1784,2013-09-05 09:17:00,
2013-09-05 05:22:00,63.9,57.6,29.84,SW,228,0.0,1.0,80,0.00,,,0.00,WeatherCatV1.10B1784,2013-09-05 09:22:00,
2013-09-05 05:27:00,63.8,57.9,29.83,SSW,193,0.0,0.0,81,0.00,,,0.00,WeatherCatV1.10B1784,2013-09-05 09:27:00,
2013-09-05 05:32:00,63.7,57.8,29.83,SSW,193,0.0,0.0,81,0.00,,,0.00,WeatherCatV1.10B1784,2013-09-05 09:32:00,
2013-09-05 05:37:00,63.5,57.9,29.83,SSW,193,0.0,0.0,82,0.00,,,0.00,WeatherCatV1.10B1784,2013-09-05 09:37:00,
2013-09-05 05:42:00,63.4,57.8,29.84,SSW,196,0.0,1.0,82,0.00,,,0.00,WeatherCatV1.10B1784,2013-09-05 09:42:00,
2013-09-05 05:47:00,63.5,57.9,29.84,SSW,196,0.0,0.0,82,0.00,,,0.00,WeatherCatV1.10B1784,2013-09-05 09:47:00,
2013-09-05 05:52:00,63.5,57.9,29.84,SSW,196,0.0,0.0,82,0.00,,,0.00,WeatherCatV1.10B1784,2013-09-05 09:52:00,
2013-09-05 05:57:00,63.4,58.1,29.84,SSW,196,0.0,0.0,83,0.00,,,0.00,WeatherCatV1.10B1784,2013-09-05 09:57:00,
2013-09-05 06:02:00,63.4,58.1,29.84,SSW,196,0.0,0.0,83,0.00,,,0.00,WeatherCatV1.10B1784,2013-09-05 10:02:00,
2013-09-05 06:07:00,63.2,58.3,29.84,SSW,196,0.0,0.0,84,0.00,,,0.00,WeatherCatV1.10B1784,2013-09-05 10:07:00,
2013-09-05 06:12:00,63.1,58.2,29.84,SSW,208,0.0,0.0,84,0.00,,,0.00,WeatherCatV1.10B1784,2013-09-05 10:12:00,
2013-09-05 06:17:00,63.2,57.9,29.85,SSW,213,0.0,3.0,83,0.00,,,0.00,WeatherCatV1.10B1784,2013-09-05 10:17:00,
2013-09-05 06:22:00,63.5,57.9,29.85,SW,235,0.0,1.0,82,0.00,,,0.00,WeatherCatV1.10B1784,2013-09-05 10:22:00,
2013-09-05 06:27:00,63.8,58.2,29.85,SW,235,0.0,0.0,82,0.00,,,0.00,WeatherCatV1.10B1784,2013-09-05 10:27:00,
2013-09-05 06:32:00,63.9,57.9,29.84,SW,231,3.0,4.0,81,0.00,,,0.00,WeatherCatV1.10B1784,2013-09-05 10:32:00,
2013-09-05 06:37:00,64.4,58.1,29.84,WSW,246,0.0,2.0,80,0.00,,,0.00,WeatherCatV1.10B1784,2013-09-05 10:37:00,
2013-09-05 06:42:00,64.8,58.1,29.84,WSW,246,2.0,5.0,79,0.00,,,0.00,WeatherCatV1.10B1784,2013-09-05 10:42:00,
2013-09-05 06:47:00,65.1,58.1,29.84,WSW,248,1.0,8.0,78,0.00,,,0.00,WeatherCatV1.10B1784,2013-09-05 10:47:00,
2013-09-05 06:52:00,65.3,57.9,29.85,WSW,257,7.0,8.0,77,0.00,,,0.00,WeatherCatV1.10B1784,2013-09-05 10:52:00,
2013-09-05 06:57:00,65.2,58.2,29.85,SW,221,0.0,4.0,78,0.00,,,0.00,WeatherCatV1.10B1784,2013-09-05 10:57:00,
2013-09-05 07:02:00,65.0,58.3,29.85,WSW,257,5.0,5.0,79,0.00,,,0.00,WeatherCatV1.10B1784,2013-09-05 11:02:00,
2013-09-05 07:07:00,64.8,58.5,29.85,WSW,248,1.0,1.0,80,0.00,,,0.00,WeatherCatV1.10B1784,2013-09-05 11:07:00,
2013-09-05 07:12:00,64.5,58.2,29.85,WSW,240,0.0,2.0,80,0.00,,,0.00,WeatherCatV1.10B1784,2013-09-05 11:12:00,
2013-09-05 07:17:00,64.2,58.6,29.86,WSW,246,0.0,0.0,82,0.00,,,0.00,WeatherCatV1.10B1784,2013-09-05 11:17:00,
2013-09-05 07:22:00,64.0,58.7,29.86,WSW,246,0.0,0.0,83,0.00,,,0.00,WeatherCatV1.10B1784,2013-09-05 11:22:00,
2013-09-05 07:27:00,63.7,59.1,29.86,WSW,246,0.0,0.0,85,0.00,,,0.00,WeatherCatV1.10B1784,2013-09-05 11:27:00,
2013-09-05 07:32:00,63.4,59.1,29.87,WSW,246,0.0,0.0,86,0.00,,,0.00,WeatherCatV1.10B1784,2013-09-05 11:32:00,
2013-09-05 07:37:00,63.2,58.9,29.87,WSW,246,0.0,0.0,86,0.00,,,0.00,WeatherCatV1.10B1784,2013-09-05 11:37:00,
2013-09-05 07:42:00,63.0,59.4,29.87,WSW,246,0.0,0.0,88,0.00,,,0.00,WeatherCatV1.10B1784,2013-09-05 11:42:00,
2013-09-05 07:47:00,62.9,59.3,29.87,WSW,246,0.0,0.0,88,0.00,,,0.00,WeatherCatV1.10B1784,2013-09-05 11:47:00,
2013-09-05 07:52:00,62.6,59.0,29.87,WSW,246,0.0,0.0,88,0.00,,,0.01,WeatherCatV1.10B1784,2013-09-05 11:52:00,
2013-09-05 07:57:00,62.4,59.1,29.87,WSW,246,0.0,0.0,89,0.00,,,0.01,WeatherCatV1.10B1784,2013-09-05 11:57:00,
2013-09-05 08:02:00,62.3,59.3,29.87,WSW,246,0.0,0.0,90,0.00,,,0.01,WeatherCatV1.10B1784,2013-09-05 12:02:00,
2013-09-05 08:07:00,62.3,59.6,29.87,WSW,246,0.0,0.0,91,0.00,,,0.01,WeatherCatV1.10B1784,2013-09-05 12:07:00,
2013-09-05 08:12:00,62.2,59.5,29.88,WSW,246,0.0,0.0,91,0.00,,,0.01,WeatherCatV1.10B1784,2013-09-05 12:12:00,
2013-09-05 08:17:00,62.0,59.3,29.88,WSW,246,0.0,0.0,91,0.00,,,0.01,WeatherCatV1.10B1784,2013-09-05 12:17:00,
2013-09-05 08:22:00,62.0,59.6,29.88,WSW,246,0.0,0.0,92,0.00,,,0.01,WeatherCatV1.10B1784,2013-09-05 12:22:00,
2013-09-05 08:27:00,62.2,59.8,29.87,WSW,246,0.0,0.0,92,0.00,,,0.01,WeatherCatV1.10B1784,2013-09-05 12:27:00,
2013-09-05 08:32:00,62.3,59.9,29.88,WSW,246,0.0,0.0,92,0.00,,,0.01,WeatherCatV1.10B1784,2013-09-05 12:32:00,
2013-09-05 08:37:00,62.4,60.0,29.88,WSW,250,0.0,1.0,92,0.00,,,0.01,WeatherCatV1.10B1784,2013-09-05 12:37:00,
2013-09-05 08:42:00,62.5,60.1,29.88,WSW,249,0.0,5.0,92,0.00,,,0.01,WeatherCatV1.10B1784,2013-09-05 12:42:00,
2013-09-05 08:47:00,62.6,59.9,29.88,WSW,257,0.0,0.0,91,0.00,,,0.01,WeatherCatV1.10B1784,2013-09-05 12:47:00,
2013-09-05 08:52:00,62.7,60.0,29.89,WSW,257,2.0,2.0,91,0.00,,,0.01,WeatherCatV1.10B1784,2013-09-05 12:52:00,
2013-09-05 08:57:00,62.8,60.1,29.89,NNW,338,0.0,5.0,91,0.00,,,0.01,WeatherCatV1.10B1784,2013-09-05 12:57:00,
2013-09-05 09:02:00,63.0,60.3,29.89,NNW,338,1.0,1.0,91,0.00,,,0.01,WeatherCatV1.10B1784,2013-09-05 13:02:00,
2013-09-05 09:07:00,63.2,60.5,29.90,NNW,338,0.0,0.0,91,0.00,,,0.01,WeatherCatV1.10B1784,2013-09-05 13:07:00,
2013-09-05 09:12:00,63.2,60.5,29.90,NNW,338,0.0,0.0,91,0.00,,,0.01,WeatherCatV1.10B1784,2013-09-05 13:12:00,
2013-09-05 09:17:00,63.1,60.4,29.91,NNW,338,0.0,1.0,91,0.00,,,0.01,WeatherCatV1.10B1784,2013-09-05 13:17:00,
2013-09-05 09:22:00,63.1,60.7,29.91,NNW,338,0.0,0.0,92,0.00,,,0.01,WeatherCatV1.10B1784,2013-09-05 13:22:00,
2013-09-05 09:27:00,63.1,60.7,29.91,NNW,338,0.0,0.0,92,0.00,,,0.01,WeatherCatV1.10B1784,2013-09-05 13:27:00,
2013-09-05 09:32:00,63.2,60.8,29.91,NNW,338,0.0,0.0,92,0.00,,,0.01,WeatherCatV1.10B1784,2013-09-05 13:32:00,
2013-09-05 09:37:00,63.1,60.1,29.92,West,279,0.0,2.0,90,0.00,,,0.01,WeatherCatV1.10B1784,2013-09-05 13:37:00,
2013-09-05 09:42:00,63.1,59.8,29.92,West,277,0.0,1.0,89,0.00,,,0.01,WeatherCatV1.10B1784,2013-09-05 13:42:00,
2013-09-05 09:47:00,63.1,59.8,29.92,West,277,0.0,0.0,89,0.00,,,0.01,WeatherCatV1.10B1784,2013-09-05 13:47:00,
2013-09-05 09:52:00,63.2,59.6,29.92,West,277,0.0,1.0,88,0.00,,,0.01,WeatherCatV1.10B1784,2013-09-05 13:52:00,
2013-09-05 09:57:00,63.7,59.1,29.91,WSW,252,0.0,1.0,85,0.00,,,0.01,WeatherCatV1.10B1784,2013-09-05 13:57:00,
2013-09-05 10:02:00,64.2,59.3,29.91,WSW,252,0.0,0.0,84,0.00,,,0.01,WeatherCatV1.10B1784,2013-09-05 14:02:00,
2013-09-05 10:07:00,64.1,58.1,29.91,WSW,253,0.0,0.0,81,0.00,,,0.01,WeatherCatV1.10B1784,2013-09-05 14:07:00,
2013-09-05 10:12:00,64.1,57.8,29.92,North,10,0.0,0.0,80,0.00,,,0.01,WeatherCatV1.10B1784,2013-09-05 14:12:00,
2013-09-05 10:17:00,64.4,58.1,29.91,North,10,0.0,0.0,80,0.00,,,0.01,WeatherCatV1.10B1784,2013-09-05 14:17:00,
2013-09-05 10:22:00,64.5,57.1,29.91,ENE,74,0.0,0.0,77,0.00,,,0.01,WeatherCatV1.10B1784,2013-09-05 14:22:00,
2013-09-05 10:27:00,64.5,58.2,29.91,ENE,74,0.0,0.0,80,0.00,,,0.01,WeatherCatV1.10B1784,2013-09-05 14:27:00,
2013-09-05 10:32:00,64.7,58.7,29.92,ENE,74,0.0,0.0,81,0.00,,,0.01,WeatherCatV1.10B1784,2013-09-05 14:32:00,
2013-09-05 10:37:00,64.9,58.6,29.91,ENE,74,0.0,0.0,80,0.00,,,0.01,WeatherCatV1.10B1784,2013-09-05 14:37:00,
2013-09-05 10:42:00,65.0,58.0,29.92,ENE,75,0.0,1.0,78,0.00,,,0.01,WeatherCatV1.10B1784,2013-09-05 14:42:00,
2013-09-05 10:47:00,65.2,57.8,29.92,ENE,75,0.0,0.0,77,0.00,,,0.01,WeatherCatV1.10B1784,2013-09-05 14:47:00,
2013-09-05 10:52:00,65.2,56.7,29.92,ENE,75,0.0,0.0,74,0.00,,,0.01,WeatherCatV1.10B1784,2013-09-05 14:52:00,
2013-09-05 10:57:00,65.6,58.2,29.92,ENE,75,0.0,1.0,77,0.00,,,0.01,WeatherCatV1.10B1784,2013-09-05 14:57:00,
2013-09-05 11:02:00,65.7,57.9,29.93,ENE,75,0.0,0.0,76,0.00,,,0.01,WeatherCatV1.10B1784,2013-09-05 15:02:00,
2013-09-05 11:07:00,65.9,58.5,29.93,ENE,75,0.0,0.0,77,0.00,,,0.01,WeatherCatV1.10B1784,2013-09-05 15:07:00,
2013-09-05 11:12:00,66.1,57.9,29.93,SE,127,0.0,5.0,75,0.00,,,0.01,WeatherCatV1.10B1784,2013-09-05 15:12:00,
2013-09-05 11:17:00,66.3,57.4,29.93,NE,50,0.0,2.0,73,0.00,,,0.01,WeatherCatV1.10B1784,2013-09-05 15:17:00,
2013-09-05 11:22:00,66.2,57.3,29.93,East,95,0.0,4.0,73,0.00,,,0.01,WeatherCatV1.10B1784,2013-09-05 15:22:00,
2013-09-05 11:27:00,65.8,56.9,29.94,East,95,0.0,0.0,73,0.00,,,0.01,WeatherCatV1.10B1784,2013-09-05 15:27:00,
2013-09-05 11:32:00,65.6,57.1,29.94,East,95,0.0,1.0,74,0.00,,,0.01,WeatherCatV1.10B1784,2013-09-05 15:32:00,
2013-09-05 11:37:00,65.4,56.5,29.94,East,94,0.0,3.0,73,0.00,,,0.01,WeatherCatV1.10B1784,2013-09-05 15:37:00,
2013-09-05 11:42:00,65.6,57.1,29.94,East,94,0.0,0.0,74,0.00,,,0.01,WeatherCatV1.10B1784,2013-09-05 15:42:00,
2013-09-05 11:47:00,65.9,56.6,29.94,East,94,1.0,1.0,72,0.00,,,0.01,WeatherCatV1.10B1784,2013-09-05 15:47:00,
2013-09-05 11:52:00,66.0,57.1,29.94,SE,129,0.0,2.0,73,0.00,,,0.01,WeatherCatV1.10B1784,2013-09-05 15:52:00,
2013-09-05 11:57:00,66.1,57.6,29.94,SE,132,2.0,7.0,74,0.00,,,0.01,WeatherCatV1.10B1784,2013-09-05 15:57:00,
2013-09-05 12:02:00,66.4,57.1,29.94,East,98,0.0,1.0,72,0.00,,,0.01,WeatherCatV1.10B1784,2013-09-05 16:02:00,
2013-09-05 12:07:00,66.6,56.9,29.94,East,98,0.0,2.0,71,0.00,,,0.01,WeatherCatV1.10B1784,2013-09-05 16:07:00,
2013-09-05 12:12:00,66.9,56.0,29.94,East,100,0.0,2.0,68,0.00,,,0.01,WeatherCatV1.10B1784,2013-09-05 16:12:00,
2013-09-05 12:17:00,67.0,56.1,29.94,ENE,58,0.0,0.0,68,0.00,,,0.01,WeatherCatV1.10B1784,2013-09-05 16:17:00,
2013-09-05 12:22:00,67.3,57.2,29.93,ENE,78,0.0,1.0,70,0.00,,,0.01,WeatherCatV1.10B1784,2013-09-05 16:22:00,
2013-09-05 12:27:00,67.3,56.8,29.93,NE,48,0.0,7.0,69,0.00,,,0.01,WeatherCatV1.10B1784,2013-09-05 16:27:00,
2013-09-05 12:32:00,67.0,56.9,29.94,NE,48,0.0,1.0,70,0.00,,,0.01,WeatherCatV1.10B1784,2013-09-05 16:32:00,
2013-09-05 12:37:00,66.5,55.6,29.93,NE,48,0.0,0.0,68,0.00,,,0.01,WeatherCatV1.10B1784,2013-09-05 16:37:00,
2013-09-05 12:42:00,66.9,56.0,29.93,ENE,63,1.0,1.0,68,0.00,,,0.01,WeatherCatV1.10B1784,2013-09-05 16:42:00,
2013-09-05 12:47:00,67.5,56.6,29.93,NE,35,0.0,3.0,68,0.00,,,0.01,WeatherCatV1.10B1784,2013-09-05 16:47:00,
2013-09-05 12:52:00,68.0,56.2,29.93,ENE,67,0.0,3.0,66,0.00,,,0.01,WeatherCatV1.10B1784,2013-09-05 16:52:00,
2013-09-05 12:57:00,68.5,55.8,29.93,South,169,0.0,3.0,64,0.00,,,0.01,WeatherCatV1.10B1784,2013-09-05 16:57:00,
2013-09-05 13:02:00,68.8,56.1,29.93,East,80,1.0,1.0,64,0.00,,,0.01,WeatherCatV1.10B1784,2013-09-05 17:02:00,
2013-09-05 13:07:00,69.3,55.7,29.93,ENE,77,0.0,1.0,62,0.00,,,0.01,WeatherCatV1.10B1784,2013-09-05 17:07:00,
2013-09-05 13:12:00,69.8,54.8,29.93,East,86,0.0,1.0,59,0.00,,,0.01,WeatherCatV1.10B1784,2013-09-05 17:12:00,
2013-09-05 13:17:00,69.5,54.1,29.93,North,353,0.0,6.0,58,0.00,,,0.01,WeatherCatV1.10B1784,2013-09-05 17:17:00,
2013-09-05 13:22:00,69.6,54.2,29.93,North,353,0.0,0.0,58,0.00,,,0.01,WeatherCatV1.10B1784,2013-09-05 17:22:00,
2013-09-05 13:27:00,69.9,55.8,29.93,ESE,102,0.0,1.0,61,0.00,,,0.01,WeatherCatV1.10B1784,2013-09-05 17:27:00,
2013-09-05 13:32:00,70.0,55.0,29.93,East,94,0.0,0.0,59,0.00,,,0.01,WeatherCatV1.10B1784,2013-09-05 17:32:00,
2013-09-05 13:37:00,69.6,55.1,29.93,East,94,0.0,0.0,60,0.00,,,0.01,WeatherCatV1.10B1784,2013-09-05 17:37:00,
2013-09-05 13:42:00,69.1,55.1,29.93,East,94,0.0,0.0,61,0.00,,,0.01,WeatherCatV1.10B1784,2013-09-05 17:42:00,
2013-09-05 13:47:00,68.5,55.4,29.93,East,94,0.0,0.0,63,0.00,,,0.01,WeatherCatV1.10B1784,2013-09-05 17:47:00,
2013-09-05 13:52:00,68.0,54.5,29.93,East,94,0.0,1.0,62,0.00,,,0.01,WeatherCatV1.10B1784,2013-09-05 17:52:00,
2013-09-05 13:57:00,68.3,55.2,29.93,East,94,0.0,1.0,63,0.00,,,0.01,WeatherCatV1.10B1784,2013-09-05 17:57:00,
2013-09-05 14:02:00,68.4,54.9,29.93,East,95,0.0,2.0,62,0.00,,,0.01,WeatherCatV1.10B1784,2013-09-05 18:02:00,
2013-09-05 14:07:00,69.0,54.1,29.93,East,95,0.0,1.0,59,0.00,,,0.01,WeatherCatV1.10B1784,2013-09-05 18:07:00,
2013-09-05 14:12:00,69.9,53.0,29.93,East,95,0.0,0.0,55,0.00,,,0.01,WeatherCatV1.10B1784,2013-09-05 18:12:00,
2013-09-05 14:17:00,70.0,51.0,29.93,East,93,0.0,1.0,51,0.00,,,0.01,WeatherCatV1.10B1784,2013-09-05 18:17:00,
2013-09-05 14:22:00,69.5,52.6,29.93,East,93,0.0,1.0,55,0.00,,,0.01,WeatherCatV1.10B1784,2013-09-05 18:22:00,
2013-09-05 14:27:00,68.8,52.5,29.93,East,93,0.0,0.0,56,0.00,,,0.01,WeatherCatV1.10B1784,2013-09-05 18:27:00,
2013-09-05 14:32:00,68.6,50.8,29.93,NNW,331,2.0,2.0,53,0.00,,,0.01,WeatherCatV1.10B1784,2013-09-05 18:32:00,
2013-09-05 14:37:00,68.6,48.1,29.93,North,350,0.0,10.0,48,0.00,,,0.01,WeatherCatV1.10B1784,2013-09-05 18:37:00,
2013-09-05 14:42:00,68.4,50.1,29.93,WNW,292,1.0,6.0,52,0.00,,,0.01,WeatherCatV1.10B1784,2013-09-05 18:42:00,
2013-09-05 14:47:00,68.1,46.5,29.93,WNW,292,0.0,1.0,46,0.00,,,0.01,WeatherCatV1.10B1784,2013-09-05 18:47:00,
2013-09-05 14:52:00,67.9,48.0,29.94,NW,304,2.0,4.0,49,0.00,,,0.01,WeatherCatV1.10B1784,2013-09-05 18:52:00,
2013-09-05 14:57:00,68.1,47.1,29.94,WNW,297,0.0,2.0,47,0.00,,,0.01,WeatherCatV1.10B1784,2013-09-05 18:57:00,
2013-09-05 15:02:00,68.1,45.9,29.94,WNW,286,3.0,3.0,45,0.00,,,0.01,WeatherCatV1.10B1784,2013-09-05 19:02:00,
2013-09-05 15:07:00,68.4,44.4,29.94,WNW,286,0.0,4.0,42,0.00,,,0.01,WeatherCatV1.10B1784,2013-09-05 19:07:00,
2013-09-05 15:12:00,69.0,45.6,29.94,WSW,251,0.0,4.0,43,0.00,,,0.01,WeatherCatV1.10B1784,2013-09-05 19:12:00,
2013-09-05 15:17:00,69.2,46.3,29.95,WSW,248,5.0,5.0,44,0.00,,,0.01,WeatherCatV1.10B1784,2013-09-05 19:17:00,
2013-09-05 15:22:00,69.4,45.9,29.95,WNW,288,0.0,6.0,43,0.00,,,0.01,WeatherCatV1.10B1784,2013-09-05 19:22:00,
2013-09-05 15:27:00,69.7,46.8,29.95,WNW,285,0.0,1.0,44,0.00,,,0.01,WeatherCatV1.10B1784,2013-09-05 19:27:00,
2013-09-05 15:32:00,69.8,50.3,29.95,West,267,3.0,3.0,50,0.00,,,0.01,WeatherCatV1.10B1784,2013-09-05 19:32:00,
2013-09-05 15:37:00,69.4,45.9,29.95,SW,223,4.0,5.0,43,0.00,,,0.01,WeatherCatV1.10B1784,2013-09-05 19:37:00,
2013-09-05 15:42:00,69.5,46.6,29.95,West,262,2.0,3.0,44,0.00,,,0.01,WeatherCatV1.10B1784,2013-09-05 19:42:00,
2013-09-05 15:47:00,69.5,48.4,29.95,West,280,0.0,9.0,47,0.00,,,0.01,WeatherCatV1.10B1784,2013-09-05 19:47:00,
2013-09-05 15:52:00,69.9,48.2,29.95,West,271,1.0,3.0,46,0.00,,,0.01,WeatherCatV1.10B1784,2013-09-05 19:52:00,
2013-09-05 15:57:00,70.1,47.2,29.95,West,267,2.0,3.0,44,0.00,,,0.01,WeatherCatV1.10B1784,2013-09-05 19:57:00,
2013-09-05 16:02:00,70.5,49.9,29.95,West,273,0.0,3.0,48,0.00,,,0.01,WeatherCatV1.10B1784,2013-09-05 20:02:00,
2013-09-05 16:07:00,70.3,47.9,29.95,West,271,0.0,1.0,45,0.00,,,0.01,WeatherCatV1.10B1784,2013-09-05 20:07:00,
2013-09-05 16:12:00,70.4,49.8,29.95,West,271,0.0,0.0,48,0.00,,,0.01,WeatherCatV1.10B1784,2013-09-05 20:12:00,
2013-09-05 16:17:00,70.7,49.5,29.95,West,271,0.0,1.0,47,0.00,,,0.01,WeatherCatV1.10B1784,2013-09-05 20:17:00,
2013-09-05 16:22:00,70.3,48.5,29.95,West,271,0.0,0.0,46,0.00,,,0.01,WeatherCatV1.10B1784,2013-09-05 20:22:00,
2013-09-05 16:27:00,70.2,49.0,29.95,West,271,0.0,2.0,47,0.00,,,0.01,WeatherCatV1.10B1784,2013-09-05 20:27:00,
2013-09-05 16:32:00,69.9,50.4,29.95,North,354,0.0,1.0,50,0.00,,,0.01,WeatherCatV1.10B1784,2013-09-05 20:32:00,
2013-09-05 16:37:00,69.3,50.4,29.95,WSW,252,0.0,5.0,51,0.00,,,0.01,WeatherCatV1.10B1784,2013-09-05 20:37:00,
2013-09-05 16:42:00,69.4,49.9,29.95,NW,319,1.0,2.0,50,0.00,,,0.01,WeatherCatV1.10B1784,2013-09-05 20:42:00,
2013-09-05 16:47:00,69.1,49.7,29.95,NNE,12,0.0,1.0,50,0.00,,,0.01,WeatherCatV1.10B1784,2013-09-05 20:47:00,
2013-09-05 16:52:00,68.7,48.2,29.95,NNW,346,0.0,3.0,48,0.00,,,0.01,WeatherCatV1.10B1784,2013-09-05 20:52:00,
2013-09-05 16:57:00,68.8,48.8,29.95,NNW,341,0.0,1.0,49,0.00,,,0.01,WeatherCatV1.10B1784,2013-09-05 20:57:00,
2013-09-05 17:02:00,68.9,47.3,29.96,NNW,341,0.0,0.0,46,0.00,,,0.01,WeatherCatV1.10B1784,2013-09-05 21:02:00,
2013-09-05 17:07:00,68.7,50.9,29.96,NW,326,0.0,0.0,53,0.00,,,0.01,WeatherCatV1.10B1784,2013-09-05 21:07:00,
2013-09-05 17:12:00,69.3,47.6,29.96,SSW,198,0.0,4.0,46,0.00,,,0.01,WeatherCatV1.10B1784,2013-09-05 21:12:00,
2013-09-05 17:17:00,68.9,46.7,29.96,NNW,333,0.0,0.0,45,0.00,,,0.01,WeatherCatV1.10B1784,2013-09-05 21:17:00,
2013-09-05 17:22:00,68.4,47.9,29.96,West,273,0.0,0.0,48,0.00,,,0.01,WeatherCatV1.10B1784,2013-09-05 21:22:00,
2013-09-05 17:27:00,68.3,45.5,29.97,WSW,246,0.0,5.0,44,0.00,,,0.01,WeatherCatV1.10B1784,2013-09-05 21:27:00,
2013-09-05 17:32:00,68.1,50.3,29.97,WSW,250,0.0,1.0,53,0.00,,,0.01,WeatherCatV1.10B1784,2013-09-05 21:32:00,
2013-09-05 17:37:00,67.3,45.8,29.97,WSW,252,0.0,1.0,46,0.00,,,0.01,WeatherCatV1.10B1784,2013-09-05 21:37:00,
2013-09-05 17:42:00,66.9,47.6,29.97,West,280,0.0,3.0,50,0.00,,,0.01,WeatherCatV1.10B1784,2013-09-05 21:42:00,
2013-09-05 17:47:00,66.3,46.0,29.97,West,280,0.0,0.0,48,0.00,,,0.01,WeatherCatV1.10B1784,2013-09-05 21:47:00,
2013-09-05 17:52:00,65.8,45.6,29.98,West,280,0.0,0.0,48,0.00,,,0.01,WeatherCatV1.10B1784,2013-09-05 21:52:00,
2013-09-05 17:57:00,65.2,45.0,29.98,WSW,257,0.0,4.0,48,0.00,,,0.01,WeatherCatV1.10B1784,2013-09-05 21:57:00,
2013-09-05 18:02:00,65.0,44.8,29.98,WSW,257,0.0,0.0,48,0.00,,,0.01,WeatherCatV1.10B1784,2013-09-05 22:02:00,
2013-09-05 18:07:00,64.7,45.6,29.98,WSW,257,0.0,0.0,50,0.00,,,0.01,WeatherCatV1.10B1784,2013-09-05 22:07:00,
2013-09-05 18:12:00,64.0,46.0,29.99,WSW,257,0.0,0.0,52,0.00,,,0.01,WeatherCatV1.10B1784,2013-09-05 22:12:00,
2013-09-05 18:17:00,63.5,45.0,29.99,WSW,257,0.0,0.0,51,0.00,,,0.01,WeatherCatV1.10B1784,2013-09-05 22:17:00,
2013-09-05 18:22:00,63.1,44.7,29.99,WSW,257,0.0,1.0,51,0.00,,,0.01,WeatherCatV1.10B1784,2013-09-05 22:22:00,
2013-09-05 18:27:00,62.8,44.9,29.99,WSW,257,0.0,0.0,52,0.00,,,0.01,WeatherCatV1.10B1784,2013-09-05 22:27:00,
2013-09-05 18:32:00,62.5,45.1,29.99,WSW,257,0.0,0.0,53,0.00,,,0.01,WeatherCatV1.10B1784,2013-09-05 22:32:00,
2013-09-05 18:37:00,62.1,46.2,29.99,WSW,257,0.0,0.0,56,0.00,,,0.01,WeatherCatV1.10B1784,2013-09-05 22:37:00,
2013-09-05 18:42:00,61.9,44.1,29.99,WSW,257,0.0,0.0,52,0.00,,,0.01,WeatherCatV1.10B1784,2013-09-05 22:42:00,
2013-09-05 18:47:00,61.6,44.3,29.99,WSW,257,0.0,0.0,53,0.00,,,0.01,WeatherCatV1.10B1784,2013-09-05 22:47:00,
2013-09-05 18:52:00,61.1,44.8,30.00,WSW,257,0.0,0.0,55,0.00,,,0.01,WeatherCatV1.10B1784,2013-09-05 22:52:00,
2013-09-05 18:57:00,60.7,45.8,30.00,WSW,257,0.0,0.0,58,0.00,,,0.01,WeatherCatV1.10B1784,2013-09-05 22:57:00,
2013-09-05 19:02:00,60.2,45.4,30.00,WSW,257,0.0,0.0,58,0.00,,,0.01,WeatherCatV1.10B1784,2013-09-05 23:02:00,
2013-09-05 19:07:00,60.0,44.3,30.00,WSW,257,0.0,0.0,56,0.00,,,0.01,WeatherCatV1.10B1784,2013-09-05 23:07:00,
2013-09-05 19:12:00,59.9,45.5,30.00,WSW,257,0.0,0.0,59,0.00,,,0.01,WeatherCatV1.10B1784,2013-09-05 23:12:00,
2013-09-05 19:17:00,59.6,45.3,30.00,WSW,257,0.0,0.0,59,0.00,,,0.01,WeatherCatV1.10B1784,2013-09-05 23:17:00,
2013-09-05 19:22:00,59.4,45.1,30.01,WSW,257,0.0,0.0,59,0.00,,,0.01,WeatherCatV1.10B1784,2013-09-05 23:22:00,
2013-09-05 19:27:00,59.1,44.3,30.01,WSW,257,0.0,0.0,58,0.00,,,0.01,WeatherCatV1.10B1784,2013-09-05 23:27:00,
2013-09-05 19:32:00,59.0,43.8,30.01,WSW,257,0.0,0.0,57,0.00,,,0.01,WeatherCatV1.10B1784,2013-09-05 23:32:00,
2013-09-05 19:37:00,58.9,44.6,30.01,WSW,257,0.0,0.0,59,0.00,,,0.01,WeatherCatV1.10B1784,2013-09-05 23:37:00,
2013-09-05 19:42:00,58.6,44.3,30.02,WSW,257,0.0,0.0,59,0.00,,,0.01,WeatherCatV1.10B1784,2013-09-05 23:42:00,
2013-09-05 19:47:00,58.4,46.7,30.02,WSW,257,0.0,0.0,65,0.00,,,0.01,WeatherCatV1.10B1784,2013-09-05 23:47:00,
2013-09-05 19:52:00,58.0,47.5,30.02,WSW,257,0.0,0.0,68,0.00,,,0.01,WeatherCatV1.10B1784,2013-09-05 23:52:00,
2013-09-05 19:57:00,57.6,46.3,30.02,WSW,257,0.0,0.0,66,0.00,,,0.01,WeatherCatV1.10B1784,2013-09-05 23:57:00,
2013-09-05 20:02:00,57.4,46.1,30.03,WSW,257,0.0,0.0,66,0.00,,,0.01,WeatherCatV1.10B1784,2013-09-06 00:02:00,
2013-09-05 20:07:00,57.3,47.2,30.03,WSW,257,0.0,0.0,69,0.00,,,0.01,WeatherCatV1.10B1784,2013-09-06 00:07:00,
2013-09-05 20:12:00,57.1,47.0,30.03,WSW,257,0.0,0.0,69,0.00,,,0.01,WeatherCatV1.10B1784,2013-09-06 00:12:00,
2013-09-05 20:17:00,56.9,46.4,30.03,WSW,257,0.0,0.0,68,0.00,,,0.01,WeatherCatV1.10B1784,2013-09-06 00:17:00,
2013-09-05 20:22:00,56.7,47.0,30.03,WSW,257,0.0,0.0,70,0.00,,,0.01,WeatherCatV1.10B1784,2013-09-06 00:22:00,
2013-09-05 20:27:00,56.6,46.2,30.03,WSW,257,0.0,0.0,68,0.00,,,0.01,WeatherCatV1.10B1784,2013-09-06 00:27:00,
2013-09-05 20:32:00,56.5,45.7,30.04,WSW,257,0.0,0.0,67,0.00,,,0.01,WeatherCatV1.10B1784,2013-09-06 00:32:00,
2013-09-05 20:37:00,56.4,46.0,30.04,WSW,257,0.0,0.0,68,0.00,,,0.01,WeatherCatV1.10B1784,2013-09-06 00:37:00,
2013-09-05 20:42:00,56.3,45.1,30.04,WSW,257,0.0,0.0,66,0.00,,,0.01,WeatherCatV1.10B1784,2013-09-06 00:42:00,
2013-09-05 20:47:00,56.4,44.0,30.05,WSW,257,0.0,0.0,63,0.00,,,0.01,WeatherCatV1.10B1784,2013-09-06 00:47:00,
2013-09-05 20:52:00,56.5,44.5,30.05,WSW,257,0.0,0.0,64,0.00,,,0.01,WeatherCatV1.10B1784,2013-09-06 00:52:00,
2013-09-05 20:57:00,56.6,44.6,30.05,WSW,257,0.0,0.0,64,0.00,,,0.01,WeatherCatV1.10B1784,2013-09-06 00:57:00,
2013-09-05 21:02:00,56.5,44.1,30.05,WSW,257,0.0,0.0,63,0.00,,,0.01,WeatherCatV1.10B1784,2013-09-06 01:02:00,
2013-09-05 21:07:00,56.5,44.9,30.05,WSW,257,0.0,0.0,65,0.00,,,0.01,WeatherCatV1.10B1784,2013-09-06 01:07:00,
2013-09-05 21:12:00,56.4,45.2,30.06,WSW,257,0.0,0.0,66,0.00,,,0.01,WeatherCatV1.10B1784,2013-09-06 01:12:00,
2013-09-05 21:17:00,56.2,46.9,30.06,WSW,257,0.0,0.0,71,0.00,,,0.01,WeatherCatV1.10B1784,2013-09-06 01:17:00,
2013-09-05 21:22:00,55.8,48.0,30.06,WSW,257,0.0,0.0,75,0.00,,,0.01,WeatherCatV1.10B1784,2013-09-06 01:22:00,
2013-09-05 21:27:00,55.3,47.9,30.06,WSW,257,0.0,0.0,76,0.00,,,0.01,WeatherCatV1.10B1784,2013-09-06 01:27:00,
2013-09-05 21:32:00,54.7,47.3,30.06,WSW,257,0.0,0.0,76,0.00,,,0.01,WeatherCatV1.10B1784,2013-09-06 01:32:00,
2013-09-05 21:37:00,54.2,47.5,30.06,WSW,257,0.0,0.0,78,0.00,,,0.01,WeatherCatV1.10B1784,2013-09-06 01:37:00,
2013-09-05 21:42:00,53.9,47.5,30.07,WSW,257,0.0,0.0,79,0.00,,,0.01,WeatherCatV1.10B1784,2013-09-06 01:42:00,
2013-09-05 21:47:00,53.6,47.2,30.07,WSW,257,0.0,0.0,79,0.00,,,0.01,WeatherCatV1.10B1784,2013-09-06 01:47:00,
2013-09-05 21:52:00,53.5,46.5,30.07,WSW,257,0.0,0.0,77,0.00,,,0.01,WeatherCatV1.10B1784,2013-09-06 01:52:00,
2013-09-05 21:57:00,53.3,47.0,30.07,WSW,257,0.0,0.0,79,0.00,,,0.01,WeatherCatV1.10B1784,2013-09-06 01:57:00,
2013-09-05 22:02:00,53.1,47.1,30.08,WSW,257,0.0,0.0,80,0.00,,,0.02,WeatherCatV1.10B1784,2013-09-06 02:02:00,
2013-09-05 22:07:00,52.9,45.9,30.08,WSW,257,0.0,0.0,77,0.00,,,0.02,WeatherCatV1.10B1784,2013-09-06 02:07:00,
2013-09-05 22:12:00,52.8,44.7,30.08,WSW,257,0.0,0.0,74,0.00,,,0.02,WeatherCatV1.10B1784,2013-09-06 02:12:00,
2013-09-05 22:17:00,53.0,44.9,30.08,WSW,257,0.0,0.0,74,0.00,,,0.02,WeatherCatV1.10B1784,2013-09-06 02:17:00,
2013-09-05 22:22:00,53.0,44.6,30.08,WSW,257,0.0,0.0,73,0.00,,,0.02,WeatherCatV1.10B1784,2013-09-06 02:22:00,
2013-09-05 22:27:00,53.0,44.9,30.08,WSW,257,0.0,0.0,74,0.00,,,0.02,WeatherCatV1.10B1784,2013-09-06 02:27:00,
2013-09-05 22:32:00,52.9,45.5,30.08,WSW,257,0.0,0.0,76,0.00,,,0.02,WeatherCatV1.10B1784,2013-09-06 02:32:00,
2013-09-05 22:37:00,52.8,45.4,30.08,WSW,257,0.0,0.0,76,0.00,,,0.02,WeatherCatV1.10B1784,2013-09-06 02:37:00,
2013-09-05 22:42:00,52.8,45.8,30.09,WSW,257,0.0,0.0,77,0.00,,,0.02,WeatherCatV1.10B1784,2013-09-06 02:42:00,
2013-09-05 22:47:00,53.0,46.3,30.09,WSW,257,0.0,0.0,78,0.00,,,0.02,WeatherCatV1.10B1784,2013-09-06 02:47:00,
2013-09-05 22:52:00,53.0,46.0,30.09,WSW,257,0.0,0.0,77,0.00,,,0.02,WeatherCatV1.10B1784,2013-09-06 02:52:00,
2013-09-05 22:57:00,53.1,46.1,30.09,WSW,257,0.0,0.0,77,0.00,,,0.02,WeatherCatV1.10B1784,2013-09-06 02:57:00,
2013-09-05 23:02:00,53.1,45.7,30.10,WSW,257,0.0,0.0,76,0.00,,,0.02,WeatherCatV1.10B1784,2013-09-06 03:02:00,
2013-09-05 23:07:00,53.1,46.1,30.10,WSW,257,0.0,0.0,77,0.00,,,0.02,WeatherCatV1.10B1784,2013-09-06 03:07:00,
2013-09-05 23:12:00,53.2,45.5,30.10,WSW,257,0.0,0.0,75,0.00,,,0.02,WeatherCatV1.10B1784,2013-09-06 03:12:00,
2013-09-05 23:17:00,53.5,45.4,30.10,WSW,257,0.0,0.0,74,0.00,,,0.02,WeatherCatV1.10B1784,2013-09-06 03:17:00,
2013-09-05 23:22:00,53.5,45.1,30.10,WSW,257,0.0,0.0,73,0.00,,,0.02,WeatherCatV1.10B1784,2013-09-06 03:22:00,
2013-09-05 23:27:00,53.5,45.1,30.10,WSW,257,0.0,0.0,73,0.00,,,0.02,WeatherCatV1.10B1784,2013-09-06 03:27:00,
2013-09-05 23:32:00,53.5,45.1,30.11,WSW,257,0.0,0.0,73,0.00,,,0.02,WeatherCatV1.10B1784,2013-09-06 03:32:00,
2013-09-05 23:37:00,53.5,45.1,30.11,WSW,257,0.0,0.0,73,0.00,,,0.02,WeatherCatV1.10B1784,2013-09-06 03:37:00,
2013-09-05 23:42:00,53.5,45.1,30.11,WSW,257,0.0,0.0,73,0.00,,,0.02,WeatherCatV1.10B1784,2013-09-06 03:42:00,
2013-09-05 23:47:00,53.4,44.6,30.11,WSW,257,0.0,0.0,72,0.00,,,0.02,WeatherCatV1.10B1784,2013-09-06 03:47:00,
2013-09-05 23:52:00,53.3,44.9,30.11,WSW,257,0.0,0.0,73,0.00,,,0.02,WeatherCatV1.10B1784,2013-09-06 03:52:00,
2013-09-05 23:57:00,53.2,44.0,30.11,WSW,257,0.0,0.0,71,0.00,,,0.02,WeatherCatV1.10B1784,2013-09-06 03:57:00,